sat.trackr.live / text

‹ back to catalog

STARLINK-34141

NORAD 64020 · 2025-101AC

PAYLOAD ACTIVE UNKNOWN

§ Identity

Operator
Country
US
Launch date
2025-05-14
Launch site
AFETR
Launch vehicle
Mass (kg)
RCS (m²)

Purposes: comms

External: N2YO · Heavens-Above · Gunter

§ Orbital elements

Epoch: 2026-09-20T12:53:24.412704Z

Period
94.27 min
Inclination
43.0042°
Eccentricity
0.0000554
Mean motion
15.27588934 rev/d
Perigee alt
482.6 km
Apogee alt
483.4 km
Semi-major
6,861.2 km
B*
4.5339e-4
RAAN
337.6413°
Arg perigee
257.8469°
Mean anomaly
102.2321°
Rev number
7,685

§ Raw data

STARLINK-341411 64020U 25101AC  26263.53708811  .00012238  00000+0  45339-3 0  99952 64020  43.0042 337.6413 0000554 257.8469 102.2321 15.27588934 76858

JSON: /api/v1/satellites/64020 · /tle

For live sub-satellite position, see the globe view (requires WebGL).

§ Visibility from observer

Set your observer location to see the next 7 days of passes ≥ 10°. The values pass through the URL so the page stays shareable.

No JS? Fill the form by hand. The geolocation button needs JavaScript.